Location: Baili�vre
(50.0696°N, 4.2409°E)
Time: 05:02:47
(UTC+00:00)

Cosmos 1356 - Visible Passes

Search period start: 26 November 2020 00:00
Search period end: 06 December 2020 00:00
Orbit: 441 x 446 km, 81.1° (Epoch: 25 November)

Date Brightness Start Highest point End Pass type
(mag) Time Alt. Az. Time Alt. Az. Time Alt. Az.
26 Nov 5.1 06:14:26 10° SSE 06:17:36 37° E 06:20:48 10° NNE visible
26 Nov 4.0 17:29:29 10° NNW 17:32:51 57° W 17:36:13 10° S visible
27 Nov 6.5 05:37:53 10° SE 05:40:16 18° E 05:42:40 10° NE visible
27 Nov 3.3 16:51:56 10° N 16:55:21 61° ENE 16:58:44 10° SSE visible
27 Nov 7.1 18:28:35 10° WNW 18:29:12 10° W 18:29:48 10° W visible
28 Nov 3.3 06:33:24 10° SSW 06:36:48 74° WNW 06:40:14 10° N visible
28 Nov 6.2 17:49:17 10° NW 17:51:56 21° W 17:54:35 10° SW visible
29 Nov 4.5 05:56:01 10° S 05:59:19 47° E 06:02:37 10° NNE visible
29 Nov 4.6 17:11:16 10° NNW 17:14:34 45° W 17:17:50 10° S visible
30 Nov 6.1 05:19:14 10° SE 05:21:55 22° E 05:24:37 10° NE visible
30 Nov 3.3 16:33:36 10° N 16:37:03 77° ENE 16:40:28 10° SSE visible
01 Dec 7.0 04:43:46 10° E 04:44:38 11° E 04:45:30 10° ENE visible
01 Dec 3.4 06:15:09 10° SSW 06:18:31 58° WNW 06:21:54 10° N visible
01 Dec 6.5 17:31:12 10° NW 17:33:33 17° W 17:35:53 10° SW visible
02 Dec 3.9 05:37:36 10° S 05:40:57 60° E 05:44:20 10° NNE visible
02 Dec 5.2 16:53:00 10° NNW 16:56:11 36° W 16:59:21 10° SSW visible
03 Dec 5.6 05:00:36 10° SSE 05:03:30 27° E 05:06:26 10° NE visible
03 Dec 4.6 06:35:08 10° WSW 06:37:53 22° WNW 06:40:39 10° NNW visible
04 Dec 6.8 04:24:30 10° ESE 04:26:11 13° E 04:27:51 10° ENE visible
04 Dec 3.6 05:56:51 10° SSW 06:00:09 46° WNW 06:03:29 10° N visible
04 Dec 6.6 17:13:09 10° NW 17:15:05 14° W 17:17:01 10° WSW visible
05 Dec 3.5 05:19:08 10° S 05:22:32 76° E 05:25:58 10° NNE visible
05 Dec 5.6 16:34:42 10° NNW 16:37:44 29° W 16:40:45 10° SSW visible
